Content
SEND FEEDBACK

Daily
Averages
Monthly
Summary
United States of America

DEDEDO, GUAM


Home > North America > United States > Guam
Elevation: 111 meters     Latitude: 13 33N     Longitude: 144 49E

WEATHER
 
SELECT A DAY
Number of Records: 213,899;   Date Range: 1/1/95 - 10/23/14
 
SHARE

PRINT THIS DATA

[ ← Previous Day ]
WEATHER ALMANAC - 15 SEPTEMBER, 2013
[ Next Day → ]
[ °F ]   °C
Weather ElementAverageHighLow
Temperature28.3 °C31.7 °C (12:54 pm)24.4 °C (3:54 am)
Dewpoint24.1 °C25 °C (11:22 am)23.3 °C (1:54 am)
Humidity78.5 %94 % (3:54 am)61 % (12:54 pm)
Barometer1008.1 hPa1009.8 hPa (8:54 am)1006.4 hPa (2:54 pm)
Wind Speed9 km/h18.5 km/h (2:54 pm)
Wind Gust27.8 km/h (3:54 pm)
Weather ElementAverage
Visibility15.6 km
Wind DirectionSSW (196.7 °)

Weather ElementTotal
Precipitation5.08 mm
Cooling Degree Days9.7 (Base 18.3)
Growing Degree Days18.1 (Base 10)
Averaged from 27 records on 15 September, 2013
WEATHER CONDITIONS BREAKOUT
WIND DIRECTION BREAKOUT
WEATHER BY HOUR - 15 SEPTEMBER, 2013
[ °F ]   °C
Local TimeTemperatureDewpointHumidityBarometerVisibilityWind DirectionWind SpeedGust SpeedPrecipitationEventsConditions
1:54 AM25.6 °C23.3 °C87 %1007.8 hPa16.1 kmCalmClear
2:54 AM25 °C23.3 °C90 %1007.5 hPa16.1 kmCalmClear
3:54 AM24.4 °C23.3 °C94 %1007.5 hPa16.1 kmCalmClear
4:54 AM26.7 °C24.4 °C87 %1007.8 hPa16.1 kmENE (70°)9.3 km/hClear
5:54 AM26.7 °C24.4 °C87 %1007.8 hPa16.1 kmENE (60°)5.6 km/hClear
6:54 AM27.8 °C24.4 °C82 %1008.8 hPa16.1 kmCalmClear
7:54 AM29.4 °C24.4 °C74 %1009.5 hPa16.1 kmNE (50°)5.6 km/hClear
8:54 AM29.4 °C23.3 °C69 %1009.8 hPa16.1 kmEast (100°)5.6 km/hPartly Cloudy
9:54 AM30 °C23.3 °C67 %1009.5 hPa16.1 kmCalmScattered Clouds
10:38 AM29 °C24 °C74 %1009.8 hPa16.1 kmWNW (290°)9.3 km/hMostly Cloudy
10:54 AM28.9 °C23.9 °C74 %1009.1 hPa9.7 kmNorth (360°)13 km/hRainLight Rain
11:22 AM27 °C25 °C89 %1009.5 hPa11.3 kmSSW (200°)7.4 km/h2.54 mmRainLight Rain
11:54 AM29.4 °C24.4 °C74 %1008.1 hPa16.1 kmCalm2.54 mmScattered Clouds
12:54 PM31.7 °C23.3 °C61 %1007.5 hPa16.1 kmWNW (290°)11.1 km/hScattered Clouds
1:54 PM30.6 °C25 °C72 %1006.8 hPa16.1 kmWest (270°)14.8 km/h0 mmMostly Cloudy
2:54 PM30.6 °C25 °C72 %1006.4 hPa16.1 kmWest (260°)18.5 km/hMostly Cloudy
3:54 PM30.6 °C24.4 °C69 %1006.4 hPa16.1 kmWest (280°)14.8 km/h27.8 km/h0 mmScattered Clouds
4:54 PM30.6 °C24.4 °C69 %1006.8 hPa16.1 kmWest (280°)14.8 km/hScattered Clouds
5:54 PM28.3 °C23.3 °C74 %1007.1 hPa16.1 kmWNW (290°)13 km/hPartly Cloudy
6:49 PM28 °C24 °C79 %1008.5 hPa16.1 kmWNW (290°)11.1 km/hThunderstormThunderstorm
6:54 PM28.3 °C23.9 °C77 %1007.8 hPa16.1 kmWNW (290°)11.1 km/hThunderstormThunderstorm
7:05 PM28 °C24 °C79 %1008.5 hPa16.1 kmNorth (360°)9.3 km/hPartly Cloudy
7:54 PM27.2 °C23.9 °C82 %1007.5 hPa16.1 kmNNW (330°)9.3 km/hPartly Cloudy
8:54 PM27.8 °C25 °C85 %1008.1 hPa16.1 kmNW (310°)16.7 km/hPartly Cloudy
9:54 PM27.2 °C24.4 °C85 %1008.5 hPa16.1 kmWNW (300°)18.5 km/hPartly Cloudy
10:54 PM27.8 °C24.4 °C82 %1008.5 hPa16.1 kmNW (310°)11.1 km/hOvercast
11:54 PM27.8 °C25 °C85 %1007.8 hPa16.1 kmNW (320°)14.8 km/hMostly Cloudy
Hourly data recorded from PGUM, located 0 kilometers away from Dededo, Guam







STORIES FROM OUR PARTNERS